Date Time,Air Temp,Sky Temp,Clarity,Light Level,Rain Sensor,Readings
2012-02-23 00:00:10,16.2,5.6,10.5,0.0,2.9,112
2012-02-23 00:05:10,16.2,5.8,10.4,0.0,2.7,112
2012-02-23 00:10:10,16.2,6.0,10.2,0.0,2.7,111
2012-02-23 00:15:10,16.2,5.8,10.5,0.0,2.8,112
2012-02-23 00:20:10,16.2,5.8,10.4,0.0,2.8,112
2012-02-23 00:25:10,16.3,6.3,10.1,0.0,2.7,111
2012-02-23 00:30:10,16.3,6.2,10.0,0.0,2.7,112
2012-02-23 00:35:10,16.3,5.7,10.6,0.0,3.0,112
2012-02-23 00:40:10,16.2,5.7,10.5,0.0,2.7,111
2012-02-23 00:45:10,16.2,5.8,10.3,0.0,2.8,112
2012-02-23 00:50:10,16.1,5.9,10.2,0.0,2.7,112
2012-02-23 00:55:10,16.1,6.2,9.9,0.0,2.7,111
2012-02-23 01:00:10,16.1,6.4,9.8,0.0,2.7,111
2012-02-23 01:05:10,16.1,6.4,9.7,0.0,2.7,111
2012-02-23 01:10:10,16.1,6.2,9.9,0.0,2.6,112
2012-02-23 01:15:10,16.2,6.2,9.9,0.0,2.6,112
2012-02-23 01:20:10,16.2,6.0,10.2,0.0,2.7,112
2012-02-23 01:25:10,16.2,6.4,9.7,0.0,2.6,111
2012-02-23 01:30:10,16.2,6.7,9.5,0.0,2.4,112
2012-02-23 01:35:10,16.3,6.9,9.4,0.0,2.3,111
2012-02-23 01:40:10,16.1,6.7,9.3,0.0,2.3,112
2012-02-23 01:45:10,16.4,7.1,9.3,0.0,2.2,111
2012-02-23 01:50:10,16.4,7.2,9.2,0.0,2.2,112
2012-02-23 01:55:10,16.5,7.1,9.4,0.0,2.2,111
2012-02-23 02:00:10,16.5,6.8,9.7,0.0,2.2,112
2012-02-23 02:05:10,16.5,6.8,9.7,0.0,2.3,111
2012-02-23 02:10:10,16.5,6.6,9.9,0.0,2.2,112
2012-02-23 02:15:10,16.5,6.5,10.0,0.0,2.2,111
2012-02-23 02:20:10,16.4,6.3,10.1,0.0,2.2,111
2012-02-23 02:25:10,16.4,6.3,10.1,0.0,2.2,112
2012-02-23 02:30:10,16.4,6.2,10.1,0.0,2.3,111
2012-02-23 02:35:10,16.4,6.3,10.1,0.0,2.3,111
2012-02-23 02:40:10,16.3,6.5,9.8,0.0,2.3,112
2012-02-23 02:45:10,16.4,6.5,9.9,0.0,2.3,111
2012-02-23 02:50:10,16.4,6.7,9.7,0.0,2.3,111
2012-02-23 02:55:10,16.5,6.8,9.7,0.0,2.3,111
2012-02-23 03:00:10,16.6,7.2,9.3,0.0,2.3,112
2012-02-23 03:05:10,16.7,7.3,9.4,0.0,2.2,111
2012-02-23 03:10:10,16.8,7.3,9.5,0.0,2.2,112
2012-02-23 03:15:10,16.8,7.4,9.5,0.0,2.3,111
2012-02-23 03:20:10,16.9,7.4,9.5,0.0,2.3,112
2012-02-23 03:25:10,16.9,7.1,9.8,0.0,2.3,111
2012-02-23 03:30:10,17.0,7.1,9.9,0.0,2.3,112
2012-02-23 03:35:10,17.0,7.5,9.5,0.0,2.4,111
2012-02-23 03:40:10,17.1,7.8,9.3,0.0,2.4,112
2012-02-23 03:45:10,17.2,7.1,10.1,0.0,2.5,111
2012-02-23 03:50:10,17.3,6.8,10.4,0.0,2.6,112
2012-02-23 03:55:10,17.4,7.1,10.2,0.0,2.6,111
2012-02-23 04:00:10,17.4,7.6,9.8,0.0,2.6,112
2012-02-23 04:05:10,17.4,7.9,9.5,0.0,2.6,111
2012-02-23 04:10:10,17.4,8.0,9.4,0.0,2.7,112
2012-02-23 04:15:10,17.4,7.4,9.9,0.0,2.7,111
2012-02-23 04:20:10,17.3,6.9,10.4,0.0,2.6,111
2012-02-23 04:25:10,17.3,7.1,10.2,0.0,2.5,111
2012-02-23 04:30:10,17.3,7.2,10.1,0.0,2.5,112
2012-02-23 04:35:10,17.3,7.2,10.1,0.0,2.5,111
2012-02-23 04:40:10,17.4,7.2,10.1,0.0,2.5,112
2012-02-23 04:45:10,17.4,7.3,10.1,0.0,2.5,112
2012-02-23 04:50:10,17.5,7.5,10.0,0.0,2.6,111
2012-02-23 04:55:10,17.6,7.6,10.0,0.0,2.7,112
2012-02-23 05:00:10,17.6,7.8,9.9,0.0,2.7,112
2012-02-23 05:05:10,17.7,7.9,9.8,0.0,2.7,111
2012-02-23 05:10:10,17.7,8.0,9.7,0.0,2.7,112
2012-02-23 05:15:10,17.7,8.0,9.8,0.0,2.7,111
2012-02-23 05:20:10,17.7,7.9,9.9,0.0,2.5,112
2012-02-23 05:25:10,17.8,7.7,10.0,0.0,2.5,111
2012-02-23 05:30:10,17.8,7.6,10.2,0.0,2.4,112
2012-02-23 05:35:10,17.8,7.9,9.9,0.0,2.4,112
2012-02-23 05:40:10,17.5,7.9,9.6,0.0,2.3,111
2012-02-23 05:45:10,17.8,7.7,10.1,0.0,2.3,111
2012-02-23 05:50:10,17.8,7.1,10.7,0.0,2.3,112
2012-02-23 05:55:10,17.8,7.0,10.8,0.0,2.4,111
2012-02-23 06:00:10,17.8,6.9,10.9,0.0,2.5,112
2012-02-23 06:05:10,17.8,6.9,10.8,0.0,2.5,111
2012-02-23 06:10:10,17.7,6.8,10.9,0.1,2.7,112
2012-02-23 06:15:10,17.7,7.0,10.7,0.3,2.7,111
2012-02-23 06:20:10,17.8,7.0,10.7,0.7,2.7,112
2012-02-23 06:25:10,17.8,7.3,10.4,1.7,2.7,111
2012-02-23 06:30:10,17.8,7.5,10.3,3.4,2.7,112
2012-02-23 06:35:10,17.8,7.3,10.5,6.5,2.7,112
2012-02-23 06:40:10,17.8,7.0,10.9,10.9,2.7,111
2012-02-23 06:45:10,17.8,6.9,10.9,16.0,2.7,112
2012-02-23 06:50:10,17.8,7.2,10.6,19.5,2.7,111
2012-02-23 06:55:10,17.8,6.9,10.9,23.3,2.7,112
2012-02-23 07:00:10,17.7,7.0,10.8,26.2,2.7,112
2012-02-23 07:05:10,17.7,7.3,10.5,27.9,2.7,111
2012-02-23 07:10:10,17.5,7.4,10.1,29.0,2.7,112
2012-02-23 07:15:10,17.8,7.6,10.3,30.2,2.7,112
2012-02-23 07:20:10,17.8,7.8,10.0,30.6,2.7,111
2012-02-23 07:25:10,17.8,7.7,10.2,31.0,2.4,112
2012-02-23 07:30:10,17.8,7.0,10.8,31.3,2.3,111
2012-02-23 07:35:10,17.8,7.0,10.8,31.6,2.3,112
2012-02-23 07:40:10,17.7,6.8,10.9,31.8,2.3,111
2012-02-23 07:45:11,17.7,6.8,10.9,31.9,2.4,111
2012-02-23 07:50:11,17.6,6.7,10.9,31.9,2.6,112
2012-02-23 07:55:11,17.6,6.6,11.0,32.0,2.7,111
2012-02-23 08:00:11,17.6,6.6,11.0,31.9,2.7,111
2012-02-23 08:05:11,17.5,6.5,11.0,32.0,2.7,112
2012-02-23 08:10:11,17.5,6.4,11.1,32.1,2.7,111
2012-02-23 08:15:11,17.5,6.3,11.2,32.2,2.7,111
2012-02-23 08:20:11,17.6,6.6,11.0,32.2,2.7,112
2012-02-23 08:25:11,17.7,6.6,11.0,32.2,2.7,111
2012-02-23 08:30:11,17.7,6.6,11.1,32.1,2.7,112
2012-02-23 08:35:11,17.7,6.8,10.9,32.1,2.7,110
2012-02-23 08:40:11,17.4,6.9,10.6,32.2,2.7,112
2012-02-23 08:45:11,17.8,6.9,10.9,32.2,2.6,111
2012-02-23 08:50:11,17.8,7.0,10.9,32.3,2.6,112
2012-02-23 08:55:11,17.8,6.7,11.1,32.2,2.7,111
2012-02-23 09:00:11,17.7,6.5,11.3,32.3,2.8,112
2012-02-23 09:05:11,17.7,6.2,11.5,32.3,3.2,111
2012-02-23 09:10:11,17.7,6.4,11.3,32.4,3.2,111
2012-02-23 09:15:11,17.7,6.5,11.2,32.3,2.8,111
2012-02-23 09:20:11,17.7,6.7,11.0,32.4,2.7,112
2012-02-23 09:25:11,17.7,6.8,10.9,32.4,2.7,111
2012-02-23 09:30:11,17.8,6.6,11.2,32.4,2.7,111
2012-02-23 09:35:11,17.9,6.8,11.1,32.4,2.5,112
2012-02-23 09:40:11,17.9,6.9,11.0,32.3,2.5,112
2012-02-23 09:45:11,18.0,7.3,10.7,32.4,2.4,111
2012-02-23 09:50:11,18.4,7.4,11.0,32.5,2.3,111
2012-02-23 09:55:11,18.3,7.3,11.0,32.4,2.4,112
2012-02-23 10:00:11,18.4,7.5,10.9,32.5,2.5,112
2012-02-23 10:05:11,18.6,8.0,10.6,32.5,2.4,111
2012-02-23 10:10:11,18.8,7.8,11.0,32.5,2.3,112
2012-02-23 10:15:11,19.0,8.1,10.9,32.5,2.1,111
2012-02-23 10:20:11,19.2,7.6,11.6,32.5,1.9,112
2012-02-23 10:25:11,19.1,7.0,12.1,32.4,1.9,111
2012-02-23 10:30:11,18.9,7.1,11.7,32.5,2.1,111
2012-02-23 10:35:11,18.9,7.6,11.3,32.5,2.2,112
2012-02-23 10:40:11,19.0,7.3,11.7,32.5,2.0,111
2012-02-23 10:45:11,19.2,6.8,12.5,32.6,1.9,112
2012-02-23 10:50:11,19.5,6.9,12.5,32.5,2.1,111
2012-02-23 10:55:11,19.5,5.6,14.0,32.6,2.2,112
2012-02-23 11:00:11,19.6,4.7,14.9,32.5,2.2,111
2012-02-23 11:05:11,19.3,7.1,12.2,32.6,2.2,112
2012-02-23 11:10:11,19.8,6.2,13.6,32.6,2.3,112
2012-02-23 11:15:11,19.9,3.7,16.2,32.6,2.3,111
2012-02-23 11:20:11,22.2,-3.7,25.9,32.6,2.5,112
2012-02-23 11:25:11,23.8,-4.9,28.7,32.5,2.3,112
2012-02-23 11:30:11,24.5,-0.2,24.7,32.6,2.4,111
2012-02-23 11:35:11,24.8,-1.2,26.0,32.5,2.7,111
2012-02-23 11:40:11,24.6,-0.2,24.8,32.5,2.7,112
2012-02-23 11:45:11,24.6,1.8,22.7,32.5,2.7,111
2012-02-23 11:50:11,24.2,1.2,22.9,32.5,2.5,112
2012-02-23 11:55:11,24.4,1.9,22.5,32.6,2.6,111
2012-02-23 12:00:11,24.9,-0.0,24.9,32.6,2.4,111
2012-02-23 12:05:11,25.6,-2.2,27.7,32.6,2.3,112
2012-02-23 12:10:11,25.7,-4.0,29.6,32.6,2.3,112
2012-02-23 12:15:11,26.0,-1.7,27.7,32.6,2.3,111
2012-02-23 12:20:11,26.6,-2.7,29.3,32.6,2.4,112
2012-02-23 12:25:11,26.8,-3.2,30.0,32.6,2.3,112
2012-02-23 12:30:11,27.2,-2.3,29.4,32.6,2.3,111
2012-02-23 12:35:11,27.7,-2.7,30.4,32.6,2.4,112
2012-02-23 12:40:11,28.1,-3.3,31.4,32.6,2.3,112
2012-02-23 12:45:11,28.1,-2.9,31.1,32.6,2.3,111
2012-02-23 12:50:11,28.1,-3.5,31.6,32.6,2.3,112
2012-02-23 12:55:11,28.0,-3.3,31.2,32.6,2.3,112
2012-02-23 13:00:11,27.9,-3.0,30.9,32.6,2.3,111
2012-02-23 13:05:11,28.1,-2.8,30.9,32.6,2.3,112
2012-02-23 13:10:11,28.1,-2.8,30.8,32.6,2.3,112
2012-02-23 13:15:11,28.2,-3.1,31.3,32.6,2.3,111
2012-02-23 13:20:11,27.9,-0.9,28.8,32.6,2.3,112
2012-02-23 13:25:11,27.6,-0.8,28.4,32.6,2.3,112
2012-02-23 13:30:11,28.0,-4.2,32.3,32.6,2.4,111
2012-02-23 13:35:11,27.4,-3.4,30.8,32.6,2.3,111
2012-02-23 13:40:11,27.7,-2.7,30.4,32.6,2.3,112
2012-02-23 13:45:11,28.2,-2.7,30.9,32.6,2.3,112
2012-02-23 13:50:11,28.6,-2.7,31.3,32.6,2.6,111
2012-02-23 13:55:11,28.8,-2.2,31.0,32.6,2.4,112
2012-02-23 14:00:11,29.1,-2.0,31.1,32.6,2.3,112
2012-02-23 14:05:11,29.1,-2.6,31.7,32.6,2.3,111
2012-02-23 14:10:11,29.0,-2.4,31.4,32.6,2.3,112
2012-02-23 14:15:11,29.0,-2.1,31.1,32.6,2.3,111
2012-02-23 14:20:11,29.1,-2.3,31.4,32.6,2.3,112
2012-02-23 14:25:11,29.1,-2.3,31.4,32.6,2.3,112
2012-02-23 14:30:11,29.1,-2.3,31.4,32.6,2.3,111
2012-02-23 14:35:11,29.0,-2.6,31.6,32.6,2.3,112
2012-02-23 14:40:11,29.0,-2.2,31.3,32.6,2.3,112
2012-02-23 14:45:11,29.1,-2.2,31.4,32.6,2.3,111
2012-02-23 14:50:11,29.2,-2.2,31.4,32.6,2.3,112
2012-02-23 14:55:11,29.2,-2.3,31.6,32.6,2.3,112
2012-02-23 15:00:11,29.2,-2.7,31.9,32.6,2.3,112
2012-02-23 15:05:11,29.1,-3.4,32.5,32.6,2.3,111
2012-02-23 15:10:11,29.0,-2.6,31.6,32.6,2.3,112
2012-02-23 15:15:11,29.2,-2.3,31.5,32.6,2.3,112
2012-02-23 15:20:11,29.4,-2.5,31.9,32.6,2.3,112
2012-02-23 15:25:11,29.2,-2.9,32.1,32.6,2.3,112
2012-02-23 15:30:11,28.9,-2.7,31.7,32.6,2.3,112
2012-02-23 15:35:11,28.9,-2.5,31.4,32.6,2.3,111
2012-02-23 15:40:11,28.9,-2.8,31.7,32.6,2.3,112
2012-02-23 15:45:11,28.9,-2.7,31.5,32.6,2.3,112
2012-02-23 15:50:11,28.8,-2.8,31.6,32.6,2.3,111
2012-02-23 15:55:11,28.8,-2.8,31.6,32.6,2.3,112
2012-02-23 16:00:11,28.6,-3.2,31.7,32.6,2.3,112
2012-02-23 16:05:11,28.3,-4.0,32.3,32.6,2.3,112
2012-02-23 16:10:11,27.6,-6.7,34.3,32.4,2.4,112
2012-02-23 16:15:11,26.4,-6.6,33.0,32.3,2.3,112
2012-02-23 16:20:11,25.5,-6.7,32.2,32.3,2.3,111
2012-02-23 16:25:11,25.1,-6.7,31.8,32.3,2.3,112
2012-02-23 16:30:11,24.7,-6.8,31.6,32.3,2.3,112
2012-02-23 16:35:11,24.5,-6.8,31.3,32.3,2.3,112
2012-02-23 16:40:11,24.3,-6.9,31.2,32.2,2.3,111
2012-02-23 16:45:11,24.1,-7.0,31.1,32.2,2.3,112
2012-02-23 16:50:11,24.0,-6.7,30.7,32.2,2.3,112
2012-02-23 16:55:11,23.9,-6.0,29.9,32.1,2.3,111
2012-02-23 17:00:11,23.8,-5.4,29.2,32.0,2.3,111
2012-02-23 17:05:11,23.8,-4.9,28.6,32.0,2.3,112
2012-02-23 17:10:11,23.7,-4.4,28.2,32.1,2.3,111
2012-02-23 17:15:11,23.7,-4.3,28.1,32.0,2.3,113
2012-02-23 17:20:11,23.6,-4.6,28.2,31.9,2.4,111
2012-02-23 17:25:11,23.5,-4.4,27.9,31.7,2.6,113
2012-02-23 17:30:11,23.5,-5.3,28.8,31.4,2.5,111
2012-02-23 17:35:11,23.4,-6.8,30.3,31.0,2.3,112
2012-02-23 17:40:11,23.4,-7.5,31.0,30.4,2.3,111
2012-02-23 17:45:11,23.4,-7.6,31.0,29.5,2.3,111
2012-02-23 17:50:11,23.2,-7.4,30.6,27.8,2.3,111
2012-02-23 17:55:11,23.1,-7.3,30.4,24.5,2.3,111
2012-02-23 18:00:11,23.0,-7.2,30.3,19.0,2.3,111
2012-02-23 18:05:11,23.0,-7.0,30.0,12.5,2.3,112
2012-02-23 18:10:11,23.0,-7.0,30.0,7.2,2.3,112
2012-02-23 18:15:11,23.0,-6.7,29.7,3.7,2.3,111
2012-02-23 18:20:11,23.0,-6.3,29.3,1.8,2.3,112
2012-02-23 18:25:11,23.0,-5.9,28.9,0.8,2.3,112
2012-02-23 18:30:11,22.8,-5.3,28.1,0.4,2.3,111
2012-02-23 18:35:11,22.8,-3.1,25.9,0.2,2.3,112
2012-02-23 18:40:11,22.8,-1.3,24.1,0.1,2.3,111
2012-02-23 18:45:11,22.9,0.0,22.8,0.1,2.3,112
2012-02-23 18:50:11,22.9,0.9,21.9,0.1,2.3,111
2012-02-23 18:55:11,22.7,2.2,20.4,0.1,2.3,111
2012-02-23 19:00:11,20.1,1.9,18.2,0.1,2.4,111
2012-02-23 19:05:11,18.3,1.0,17.3,0.1,2.1,112
2012-02-23 19:10:11,17.6,0.7,16.9,0.1,2.1,111
2012-02-23 19:15:11,17.2,1.4,15.8,0.1,2.3,111
2012-02-23 19:20:11,17.0,3.1,14.0,0.1,2.3,112
2012-02-23 19:25:11,17.0,3.5,13.5,0.1,2.3,111
2012-02-23 19:30:11,17.1,3.3,13.8,0.1,2.3,111
2012-02-23 19:35:11,17.3,2.9,14.4,0.1,2.3,111
2012-02-23 19:40:11,17.4,4.0,13.3,0.1,2.3,111
2012-02-23 19:45:11,17.4,5.3,12.0,0.1,2.3,112
2012-02-23 19:50:11,17.4,6.0,11.4,0.1,2.3,111
2012-02-23 19:55:11,17.4,6.1,11.3,0.1,2.3,112
2012-02-23 20:00:11,17.4,6.5,11.0,0.0,2.3,112
2012-02-23 20:05:11,17.5,5.6,11.9,0.0,2.3,112
2012-02-23 20:10:11,17.5,5.1,12.5,0.0,2.3,111
2012-02-23 20:15:11,17.6,5.8,11.8,0.0,2.3,112
2012-02-23 20:20:11,17.6,6.1,11.6,0.0,2.3,111
2012-02-23 20:25:11,17.7,6.7,11.0,0.0,2.3,112
2012-02-23 20:30:11,17.8,6.6,11.1,0.0,2.3,111
2012-02-23 20:35:11,17.8,6.6,11.2,0.0,2.3,111
2012-02-23 20:40:11,17.9,6.3,11.6,0.0,2.3,111
2012-02-23 20:45:11,17.9,5.7,12.2,0.0,2.3,112
2012-02-23 20:50:11,17.9,3.3,14.5,0.0,2.3,111
2012-02-23 20:55:11,17.8,2.1,15.7,0.0,2.3,112
2012-02-23 21:00:11,17.7,3.9,13.8,0.0,2.3,111
2012-02-23 21:05:11,17.7,4.4,13.3,0.0,2.3,112
2012-02-23 21:10:11,17.6,4.7,12.9,0.0,2.3,112
2012-02-23 21:15:11,17.6,4.4,13.2,0.0,2.3,111
2012-02-23 21:20:11,17.6,5.1,12.5,0.0,2.3,111
2012-02-23 21:25:11,17.6,5.2,12.4,0.0,2.3,112
2012-02-23 21:30:11,17.6,5.2,12.4,0.0,2.3,112
2012-02-23 21:35:11,17.2,5.4,11.8,0.0,2.3,111
2012-02-23 21:40:11,17.5,5.4,12.1,0.0,2.4,112
2012-02-23 21:45:11,17.4,5.1,12.3,0.0,2.3,112
2012-02-23 21:50:11,17.4,4.4,13.0,0.0,2.3,111
2012-02-23 21:55:11,17.3,3.7,13.6,0.0,2.3,112
2012-02-23 22:00:11,17.3,4.7,12.5,0.0,2.3,111
2012-02-23 22:05:11,17.3,3.6,13.6,0.0,2.3,112
2012-02-23 22:10:11,17.3,0.6,16.6,0.0,2.3,111
2012-02-23 22:15:11,17.4,2.6,14.7,0.0,2.3,111
2012-02-23 22:20:11,17.2,4.0,13.2,0.0,2.3,112
2012-02-23 22:25:11,17.1,3.2,13.9,0.0,2.3,112
2012-02-23 22:30:11,17.1,3.8,13.3,0.0,2.3,111
2012-02-23 22:35:11,17.1,3.6,13.5,0.0,2.3,111
2012-02-23 22:40:11,17.1,2.0,15.1,0.0,2.3,112
2012-02-23 22:45:11,17.0,1.1,15.9,0.0,2.3,111
2012-02-23 22:50:11,17.0,2.1,14.9,0.0,2.3,111
2012-02-23 22:55:12,17.0,1.4,15.6,0.0,2.3,111
2012-02-23 23:00:12,17.0,2.0,15.0,0.0,2.3,111
2012-02-23 23:05:12,16.9,3.3,13.7,0.0,2.3,112
2012-02-23 23:10:12,16.9,2.9,14.1,0.0,2.3,111
2012-02-23 23:15:12,16.9,-0.4,17.2,0.0,2.4,112
2012-02-23 23:20:12,18.7,-2.6,21.3,0.0,2.3,111
2012-02-23 23:25:12,19.6,-1.5,21.1,0.0,2.3,112
2012-02-23 23:30:12,20.1,1.0,19.1,0.0,2.0,111
2012-02-23 23:35:12,17.9,2.0,15.8,0.0,2.3,111
2012-02-23 23:40:12,17.0,0.1,16.9,0.0,2.4,112
2012-02-23 23:45:12,16.8,1.5,15.4,0.0,2.7,111
2012-02-23 23:50:12,16.8,2.3,14.5,0.0,2.5,112
2012-02-23 23:55:12,16.8,3.5,13.3,0.0,2.4,111
